星链-32179 (STARLINK-32179)

导读

STARLINK-32179是美国太空探索技术公司(SpaceX)星链星座的成员,于2024年8月28日由美国发射入轨。作为星链低轨卫星互联网项目的组成部分,它运行在近地轨道,承担全球宽带互联网接入任务,重点为偏远、基础设施匮乏地区提供低时延、高速的网络连接服务,助力星链实现全球覆盖目标,持续完善太空星座网络布局。

Basic Information
目录编号:
60734
目录名称:
STARLINK-32179
国际标识:
2024-152Q
轨道中心:
EARTH
卫星名称:
星链-32179 (STARLINK-32179)
卫星全名:
星链-32179 (STARLINK-32179)
卫星状态:
在轨 (已飞行659 天)
发射日期:
2024-08-28 UTC
国别 :
美国 (US)
星等 :
--
Orbit Information
数据来源 国际轨道数据 AOE轨道数据
星历时间 2026-06-17T11:39:42+0800
22小时前
查看轨道信息
2026-06-15T00:00:00+0800
3天前
查看轨道信息
半长轴 6853.328km 6853.35km
偏心率 0.0001188 0.0002279
轨道倾角 53.161° 53.154°
近地点辐角 110.193° 94.338°
升交点赤经 166.822° 178.371°
平近点角 249.920° 243.994°
近地点 474.376km 473.651km
远地点 476.006km 476.775km
周期 94.105分钟 94.105分钟
每日圈数 15.302081 15.302009
Detailed Information
卫星平台:
Starlink v2.0 mini
运营商:
太空探索技术公司
运营商所在国:
美国
制造商(研发单位):
太空探索技术公司
制造商所在国:
美国
使用方式:
暂无
Satellite Introduction
星链(Starlink)计划是由太空探索技术公司(SpaceX)提出的一个巨型低轨卫星互联网星座项目,计划在2019年至2024年间在太空搭建由约1.2万颗卫星组成的“星链”网络,其中1584颗将部署在地球上空550千米处的近地轨道,并从2020年开始工作。该卫星仍在工作。
2D Orbit Map
3D Orbit Map
Orbit Altitude Analysis Chart
Orbit Inclination Analysis Chart
Orbit Comprehensive Analysis Chart
View Comprehensive Chart